Weather History for Bainbridge, GA

Change the Weather History Date:

Wednesday, July 24, 2013

  Actual Average (KMAI) Record (KMAI)
Temperature  
Mean Temperature 82 °F 82 °F  
Max Temperature 91 °F 92 °F 98 °F (2004)
Min Temperature 73 °F 73 °F 69 °F (2008)
Degree Days  
Heating Degree Days 0    
Month to date heating degree days  
Since 1 June heating degree days  
Since 1 July heating degree days  
Cooling Degree Days 17    
Month to date cooling degree days  
Year to date cooling degree days  
Since 1 June cooling degree days  
Growing Degree Days 32 (Base 50)    
Moisture  
Dew Point 74 °F    
Average Humidity 89    
Maximum Humidity 100    
Minimum Humidity 66    
Precipitation  
Precipitation 0.00 in 0.15 in 2.37 in (2002)
Month to date precipitation 4.08  
Year to date precipitation 31.87  
Sea Level Pressure  
Sea Level Pressure 29.91 in    
Wind  
Wind Speed 4 mph (WNW)    
Max Wind Speed 12 mph    
Max Gust Speed 31 mph    
Visibility 9 miles    
Events Rain , Thunderstorm    
T = Trace of Precipitation, MM = Missing Value Source: NWS Daily Summary

Daily Weather History Graph

Daily Weather History Graph

Search for Another Location

Airport:

Trip Planner

Search our weather history database for the weather conditions in past years. The results will help you decide how hot, cold, wet, or windy it might be!

Date:

Astronomy

Jul. 24, 2013 Rise Set
Actual Time 6:50 AM EDT 8:38 PM EDT
Civil Twilight 6:24 AM EDT 9:05 PM EDT
Nautical Twilight 5:51 AM EDT 9:37 PM EDT
Astronomical Twilight 5:17 AM EDT 10:11 PM EDT
Moon 9:59 PM EDT (7/24) 8:57 AM EDT (7/24)
Length of Visible Light 14h 41m
Length of Day
13h 47m
Waning Gibbous, 95% of the Moon is Illuminated
Jul 24
Waning Gibbous
Jul 29
Last Quarter
Aug 6
New
Aug 14
First Quarter
Aug 20
Full

Hourly Weather History & Observations

Time (EDT) Temp. Heat Index Dew Point Humidity Pressure Visibility Wind Dir Wind Speed Gust Speed Precip Events Conditions
12:15 AM 73.4 °F - 71.6 °F 94% 29.93 in 10.0 mi WSW 4.6 mph - N/A   Overcast
12:35 AM 73.4 °F - 71.6 °F 94% 29.94 in 10.0 mi WSW 9.2 mph - N/A   Overcast
12:55 AM 73.4 °F - 71.6 °F 94% 29.94 in 10.0 mi WSW 9.2 mph - N/A   Overcast
1:15 AM 73.4 °F - 71.6 °F 94% 29.94 in 10.0 mi West 5.8 mph - N/A   Overcast
1:35 AM 73.4 °F - 71.6 °F 94% 29.95 in 10.0 mi West 5.8 mph - N/A   Overcast
1:55 AM 73.4 °F - 71.6 °F 94% 29.94 in 10.0 mi West 3.5 mph - N/A   Mostly Cloudy
2:15 AM 73.4 °F - 71.6 °F 94% 29.96 in 10.0 mi WNW 10.4 mph - N/A Rain Rain
2:35 AM 73.4 °F - 71.6 °F 94% 29.95 in 10.0 mi West 6.9 mph - N/A Rain Light Rain
2:55 AM 73.4 °F - 71.6 °F 94% 29.93 in 7.0 mi West 3.5 mph - N/A Rain Rain
3:15 AM 73.4 °F - 71.6 °F 94% 29.92 in 10.0 mi Calm Calm - N/A Rain Light Rain
3:35 AM 73.4 °F - 71.6 °F 94% 29.92 in 10.0 mi Calm Calm - N/A Rain Light Rain
3:55 AM 73.4 °F - 71.6 °F 94% 29.91 in 7.0 mi Calm Calm - N/A Rain Rain
4:15 AM 73.4 °F - 71.6 °F 94% 29.91 in 10.0 mi Calm Calm - N/A Rain Light Rain
4:35 AM 73.4 °F - 71.6 °F 94% 29.90 in 10.0 mi Calm Calm - N/A   Mostly Cloudy
4:55 AM 73.4 °F - 71.6 °F 94% 29.90 in 10.0 mi Calm Calm - N/A Rain Light Rain
5:15 AM 73.4 °F - 71.6 °F 94% 29.88 in 0.8 mi Calm Calm - N/A Rain Light Rain
5:35 AM 73.4 °F - 71.6 °F 94% 29.89 in 10.0 mi Calm Calm - N/A   Mostly Cloudy
5:55 AM 73.4 °F - 71.6 °F 94% 29.90 in 7.0 mi Calm Calm - N/A Rain Light Rain
6:15 AM 73.4 °F - 71.6 °F 94% 29.91 in 10.0 mi Calm Calm - N/A   Scattered Clouds
6:35 AM 73.4 °F - 71.6 °F 94% 29.91 in 10.0 mi Calm Calm - N/A   Mostly Cloudy
6:55 AM 73.4 °F - 71.6 °F 94% 29.92 in 10.0 mi Calm Calm - N/A   Overcast
7:15 AM 73.4 °F - 71.6 °F 94% 29.92 in 10.0 mi Calm Calm - N/A   Overcast
7:35 AM 73.4 °F - 71.6 °F 94% 29.92 in 10.0 mi Calm Calm - N/A   Overcast
7:55 AM 73.4 °F - 71.6 °F 94% 29.92 in 10.0 mi Calm Calm - N/A   Overcast
8:15 AM 73.4 °F - 71.6 °F 94% 29.92 in 10.0 mi Calm Calm - N/A   Overcast
8:35 AM 75.2 °F - 73.4 °F 94% 29.92 in 10.0 mi Calm Calm - N/A   Overcast
8:55 AM 77.0 °F - 73.4 °F 89% 29.92 in 10.0 mi Calm Calm - N/A   Overcast
9:15 AM 78.8 °F - 77.0 °F 94% 29.93 in 10.0 mi Calm Calm - N/A   Overcast
9:35 AM 78.8 °F - 77.0 °F 94% 29.93 in 10.0 mi West 6.9 mph - N/A   Overcast
9:55 AM 78.8 °F - 77.0 °F 94% 29.93 in 10.0 mi West 6.9 mph - N/A   Overcast
10:15 AM 80.6 °F 87.1 °F 77.0 °F 89% 29.93 in 10.0 mi Calm Calm - N/A   Mostly Cloudy
10:35 AM 80.6 °F 87.1 °F 77.0 °F 89% 29.93 in 10.0 mi Calm Calm - N/A   Scattered Clouds
10:55 AM 84.2 °F 94.1 °F 77.0 °F 79% 29.93 in 10.0 mi NW 9.2 mph - N/A   Scattered Clouds
11:15 AM 84.2 °F 94.1 °F 77.0 °F 79% 29.93 in 10.0 mi WNW 5.8 mph - N/A   Clear
11:35 AM 86.0 °F 99.3 °F 78.8 °F 79% 29.93 in 7.0 mi West 8.1 mph - N/A   Clear
11:55 AM 86.0 °F 99.3 °F 78.8 °F 79% 29.93 in 10.0 mi NW 9.2 mph - N/A   Clear
12:15 PM 87.8 °F 102.5 °F 78.8 °F 75% 29.92 in 10.0 mi WNW 8.1 mph - N/A   Scattered Clouds
12:35 PM 87.8 °F 102.5 °F 78.8 °F 75% 29.92 in 7.0 mi West 3.5 mph - N/A   Scattered Clouds
12:55 PM 87.8 °F 102.5 °F 78.8 °F 75% 29.91 in 10.0 mi NW 5.8 mph - N/A   Mostly Cloudy
1:15 PM 89.6 °F 104.7 °F 78.8 °F 70% 29.91 in 10.0 mi WNW 3.5 mph - N/A   Scattered Clouds
1:35 PM 89.6 °F 104.7 °F 78.8 °F 70% 29.90 in 10.0 mi NW 5.8 mph - N/A   Scattered Clouds
1:55 PM 91.4 °F 111.0 °F 80.6 °F 71% 29.89 in 10.0 mi NW 4.6 mph - N/A   Scattered Clouds
2:15 PM 89.6 °F 104.7 °F 78.8 °F 70% 29.89 in 10.0 mi WSW 8.1 mph - N/A Thunderstorm Thunderstorm
2:35 PM 78.8 °F - 69.8 °F 74% 29.88 in 1.0 mi East 9.2 mph 31.1 mph N/A Rain , Thunderstorm Heavy Thunderstorms and Rain
2:55 PM 86.0 °F 95.1 °F 75.2 °F 70% 29.86 in 10.0 mi East 3.5 mph - N/A Thunderstorm Scattered Clouds
3:15 PM 87.8 °F 97.6 °F 75.2 °F 66% 29.87 in 10.0 mi WSW 4.6 mph - N/A Thunderstorm Clear
3:35 PM 87.8 °F 99.7 °F 77.0 °F 70% 29.86 in 10.0 mi SSW 8.1 mph - N/A   Clear
3:55 PM 84.2 °F 94.1 °F 77.0 °F 79% 29.86 in 10.0 mi SW 10.4 mph - N/A Thunderstorm Mostly Cloudy
4:15 PM 78.8 °F - 73.4 °F 83% 29.87 in 4.0 mi WSW 4.6 mph - N/A Rain , Thunderstorm Thunderstorms and Rain
4:35 PM 78.8 °F - 77.0 °F 94% 29.88 in 5.0 mi West 3.5 mph - N/A Rain , Thunderstorm Light Thunderstorms and Rain
4:55 PM 78.8 °F - 75.2 °F 89% 29.89 in 10.0 mi NNE 9.2 mph - N/A Thunderstorm Thunderstorm
5:15 PM 77.0 °F - 73.4 °F 89% 29.91 in 1.2 mi North 9.2 mph 20.7 mph N/A Rain , Thunderstorm Heavy Thunderstorms and Rain
5:35 PM 75.2 °F - 73.4 °F 94% 29.93 in 1.0 mi NW 11.5 mph - N/A Rain , Thunderstorm Heavy Thunderstorms and Rain
5:55 PM 75.2 °F - 73.4 °F 94% 29.92 in 3.0 mi SW 5.8 mph - N/A Rain , Thunderstorm Heavy Thunderstorms and Rain
6:15 PM 77.0 °F - 73.4 °F 89% 29.92 in 3.0 mi Calm Calm - N/A Rain , Thunderstorm Heavy Thunderstorms and Rain
6:35 PM 75.2 °F - 73.4 °F 94% 29.93 in 2.5 mi North 4.6 mph - N/A Rain , Thunderstorm Heavy Thunderstorms and Rain
6:55 PM 75.2 °F - 73.4 °F 94% 29.93 in 4.0 mi North 9.2 mph - N/A Rain Heavy Rain
7:15 PM 75.2 °F - 73.4 °F 94% 29.92 in 7.0 mi NNE 5.8 mph - N/A Rain Light Rain
7:35 PM 75.2 °F - 73.4 °F 94% 29.91 in 5.0 mi Calm Calm - N/A Rain Rain
7:55 PM 75.2 °F - 73.4 °F 94% 29.90 in 4.0 mi Calm Calm - N/A Rain Light Rain
8:15 PM 75.2 °F - 73.4 °F 94% 29.90 in 10.0 mi Calm Calm - N/A Rain Light Rain
8:35 PM 75.2 °F - 73.4 °F 94% 29.89 in 10.0 mi Calm Calm - N/A Rain Light Rain
8:55 PM 75.2 °F - 73.4 °F 94% 29.89 in 10.0 mi SW 5.8 mph - N/A   Clear
9:15 PM 75.2 °F - 73.4 °F 94% 29.89 in 10.0 mi Calm Calm - N/A Rain Light Rain
9:35 PM 73.4 °F - 73.4 °F 100% 29.89 in 10.0 mi Calm Calm - N/A   Clear
9:55 PM 73.4 °F - 73.4 °F 100% 29.89 in 10.0 mi WSW 6.9 mph - N/A   Clear
10:15 PM 75.2 °F - 73.4 °F 94% 29.89 in 10.0 mi Calm Calm - N/A   Clear
10:35 PM 75.2 °F - 73.4 °F 94% 29.88 in 10.0 mi Calm Calm - N/A   Clear
10:55 PM 75.2 °F - 73.4 °F 94% 29.88 in 10.0 mi Calm Calm - N/A   Clear
11:15 PM 75.2 °F - 73.4 °F 94% 29.89 in 10.0 mi Calm Calm - N/A   Clear
11:35 PM 75.2 °F - 73.4 °F 94% 29.89 in 10.0 mi Calm Calm - N/A   Clear
11:55 PM 75.2 °F - 73.4 °F 94% 29.89 in 10.0 mi Calm Calm - N/A   Clear